| time (UTC) | temp F | wind direction | speed MPH | gust MPH | rain 1hr in | rain 24hr in | rain mn in | humidity % | barometer mb |
| 20260903091518 | 68 | 0.0 | 0.0 | 0.00 | 0.18 | 0.00 | 81 | 1012.6 | |
| 20260903090535 | 68 | 0.0 | 0.0 | 0.00 | 0.22 | 0.00 | 81 | 1012.5 | |
| 20260903085536 | 68 | 0.0 | 0.0 | 0.00 | 0.41 | 0.00 | 81 | 1012.5 | |
| 20260903084518 | 68 | 0.0 | 0.0 | 0.00 | 0.77 | 0.00 | 81 | 1012.5 | |
| 20260903083527 | 68 | 0.0 | 0.0 | 0.00 | 0.92 | 0.00 | 81 | 1012.5 | |
| 20260903082547 | 68 | 0.0 | 0.0 | 0.00 | 0.95 | 0.00 | 81 | 1012.4 | |
| 20260903081527 | 68 | 0.0 | 0.0 | 0.00 | 0.95 | 0.00 | 81 | 1012.4 | |
| 20260903080535 | 69 | 0.0 | 0.0 | 0.00 | 1.01 | 0.00 | 81 | 1012.4 | |
| 20260903075519 | 69 | 0.0 | 0.0 | 0.00 | 1.01 | 0.00 | 81 | 1012.4 | |
| 20260903074527 | 68 | 0.0 | 0.0 | 0.00 | 1.01 | 0.00 | 81 | 1012.4 | |
| 20260903073520 | 68 | 0.0 | 0.0 | 0.00 | 1.01 | 0.00 | 81 | 1012.5 | |
| 20260903072519 | 68 | 0.0 | 0.0 | 0.00 | 1.01 | 0.00 | 81 | 1012.6 | |
| 20260903071518 | 68 | 0.0 | 0.0 | 0.00 | 1.01 | 0.00 | 81 | 1012.6 | |
| 20260903070518 | 68 | 0.0 | 0.0 | 0.00 | 1.01 | 0.00 | 81 | 1012.8 | |
| 20260903065520 | 68 | 0.0 | 0.0 | 0.00 | 1.01 | 0.00 | 81 | 1012.8 | |
| 20260903064518 | 68 | 0.0 | 0.0 | 0.00 | 1.01 | 0.00 | 81 | 1012.9 | |
| 20260903063528 | 68 | 0.0 | 0.0 | 0.00 | 1.01 | 0.00 | 81 | 1013.0 | |
| 20260903062526 | 68 | 0.0 | 0.0 | 0.00 | 1.01 | 0.00 | 81 | 1012.9 | |
| 20260903061536 | 67 | 0.0 | 0.0 | 0.00 | 1.01 | 0.00 | 81 | 1012.7 | |
| 20260903060518 | 67 | 0.0 | 0.0 | 0.00 | 1.01 | 0.00 | 81 | 1012.7 | |
| 20260903055520 | 67 | 0.0 | 0.0 | 0.00 | 1.01 | 0.00 | 81 | 1012.7 | |
| 20260903054518 | 68 | 0.0 | 0.0 | 0.00 | 1.01 | 0.00 | 81 | 1012.7 | |
| 20260903053540 | 68 | 0.0 | 0.0 | 0.00 | 1.01 | 0.00 | 81 | 1012.7 | |
| 20260903052717 | 68 | 0.0 | 0.0 | 0.00 | 1.01 | 0.00 | 81 | 1012.8 | |
| 20260903052055 | 68 | 0.0 | 0.0 | 0.00 | 1.01 | 0.00 | 81 | 1012.9 | |
| 20260903051020 | 68 | 0.0 | 0.0 | 0.00 | 1.01 | 0.00 | 81 | 1012.8 | |
| 20260903050020 | 68 | 0.0 | 0.0 | 0.00 | 1.01 | 1.01 | 81 | 1012.7 | |
| 20260903045020 | 68 | 0.0 | 0.0 | 0.00 | 1.01 | 1.01 | 81 | 1012.8 | |
| 20260903044037 | 68 | 0.0 | 0.0 | 0.00 | 1.01 | 1.01 | 81 | 1012.8 | |
| 20260903043029 | 69 | 0.0 | 0.0 | 0.00 | 1.01 | 1.01 | 81 | 1012.8 | |
| 20260903042040 | 69 | 0.0 | 0.0 | 0.00 | 1.01 | 1.01 | 82 | 1012.7 | |
| 20260903041037 | 69 | 0.0 | 0.0 | 0.00 | 1.01 | 1.01 | 82 | 1012.7 | |
| 20260903040049 | 69 | 0.0 | 0.0 | 0.00 | 1.01 | 1.01 | 82 | 1012.7 | |
| 20260903035020 | 69 | 0.0 | 0.0 | 0.00 | 1.01 | 1.01 | 82 | 1012.6 | |
| 20260903034028 | 69 | 0.0 | 0.0 | 0.00 | 1.01 | 1.01 | 82 | 1012.6 | |
| 20260903033040 | 70 | 0.0 | 0.0 | 0.00 | 1.01 | 1.01 | 82 | 1012.4 | |
| 20260903032020 | 70 | 0.0 | 0.0 | 0.00 | 1.01 | 1.01 | 82 | 1012.3 | |
| 20260903031019 | 70 | 0.0 | 0.0 | 0.00 | 1.01 | 1.01 | 83 | 1012.3 | |
| 20260903030028 | 70 | 0.0 | 0.0 | 0.00 | 1.01 | 1.01 | 84 | 1012.4 | |
| 20260903025037 | 70 | 0.0 | 0.0 | 0.00 | 1.01 | 1.01 | 84 | 1012.3 | |
| 20260903024049 | 70 | 0.0 | 0.0 | 0.00 | 1.01 | 1.01 | 85 | 1012.3 | |
| 20260903023020 | 71 | 0.0 | 0.0 | 0.00 | 1.01 | 1.01 | 85 | 1012.5 | |
| 20260903022020 | 71 | 0.0 | 0.0 | 0.00 | 1.01 | 1.01 | 85 | 1012.3 | |
| 20260903021037 | 71 | 0.0 | 0.0 | 0.00 | 1.01 | 1.01 | 86 | 1012.1 | |
| 20260903020048 | 72 | 0.0 | 0.0 | 0.00 | 1.01 | 1.01 | 87 | 1012.2 | |
| 20260903015020 | 72 | 0.0 | 0.0 | 0.00 | 1.01 | 1.01 | 87 | 1012.3 | |
| 20260903014020 | 72 | 0.0 | 0.0 | 0.00 | 1.01 | 1.01 | 88 | 1012.1 | |
| 20260903013020 | 72 | 0.0 | 0.0 | 0.00 | 1.01 | 1.01 | 88 | 1012.0 | |
| 20260903012019 | 73 | 0.0 | 0.0 | 0.00 | 1.01 | 1.01 | 88 | 1011.9 | |
| 20260903011040 | 73 | 0.0 | 0.0 | 0.00 | 1.01 | 1.01 | 88 | 1011.7 | |
| 20260903010019 | 74 | 0.0 | 0.0 | 0.00 | 1.01 | 1.01 | 87 | 1011.6 | |
| 20260903005020 | 74 | 0.0 | 0.0 | 0.00 | 1.01 | 1.01 | 86 | 1011.5 | |
| 20260903004029 | 75 | 0.0 | 0.0 | 0.00 | 1.01 | 1.01 | 85 | 1011.6 | |
| 20260903003028 | 76 | 0.0 | 0.0 | 0.00 | 1.01 | 1.01 | 84 | 1011.5 | |
| 20260903002028 | 77 | 0.0 | 0.0 | 0.00 | 1.01 | 1.01 | 82 | 1011.6 | |
| 20260903001020 | 77 | 0.0 | 0.0 | 0.00 | 1.01 | 1.01 | 80 | 1011.6 | |
| 20260903000037 | 78 | 0.0 | 0.0 | 0.00 | 1.01 | 1.01 | 79 | 1011.4 | |
| 20260902235019 | 79 | 0.0 | 0.0 | 0.00 | 1.01 | 1.01 | 77 | 1011.5 | |
| 20260902234019 | 79 | 0.0 | 0.0 | 0.00 | 1.01 | 1.01 | 75 | 1011.6 | |
| 20260902233019 | 80 | 0.0 | 0.0 | 0.00 | 1.01 | 1.01 | 73 | 1011.5 | |
| 20260902232019 | 81 | 0.0 | 0.0 | 0.00 | 1.01 | 1.01 | 70 | 1011.6 | |
| 20260902231040 | 82 | 0.0 | 0.0 | 0.00 | 1.01 | 1.01 | 68 | 1011.5 | |
| 20260902230028 | 82 | 0.0 | 0.0 | 0.00 | 1.01 | 1.01 | 67 | 1011.4 | |
| 20260902225020 | 82 | 0.0 | 1.0 | 0.00 | 1.01 | 1.01 | 66 | 1011.4 | |
| 20260902224048 | 83 | 0.0 | 2.0 | 0.00 | 1.01 | 1.01 | 62 | 1011.3 | |
| 20260902223019 | 84 | 0.0 | 0.0 | 0.00 | 1.01 | 1.01 | 64 | 1011.3 | |
| 20260902222020 | 84 | 0.0 | 0.0 | 0.00 | 1.01 | 1.01 | 61 | 1011.5 | |
| 20260902221020 | 84 | 0.0 | 1.0 | 0.00 | 1.01 | 1.01 | 61 | 1011.4 | |
| 20260902220020 | 85 | 0.0 | 1.0 | 0.00 | 1.01 | 1.01 | 59 | 1011.5 | |
| 20260902215049 | 85 | 0.0 | 1.0 | 0.00 | 1.01 | 1.01 | 58 | 1011.4 | |
| 20260902214036 | 85 | 0.0 | 3.0 | 0.00 | 1.01 | 1.01 | 59 | 1011.6 | |
| 20260902213019 | 85 | 0.0 | 2.0 | 0.00 | 1.01 | 1.01 | 60 | 1011.7 | |
| 20260902212028 | 85 | 0.0 | 1.0 | 0.00 | 1.01 | 1.01 | 63 | 1012.0 | |
| 20260902211028 | 86 | 203 | 1.0 | 4.0 | 0.00 | 1.01 | 1.01 | 59 | 1012.1 |
| 20260902210019 | 86 | 0.0 | 2.0 | 0.00 | 1.01 | 1.01 | 59 | 1012.0 | |
| 20260902205020 | 86 | 0.0 | 4.0 | 0.00 | 1.01 | 1.01 | 58 | 1012.3 | |
| 20260902204105 | 86 | 203 | 1.0 | 7.0 | 0.00 | 1.01 | 1.01 | 58 | 1012.7 |
| 20260902203019 | 85 | 0.0 | 4.0 | 0.00 | 1.01 | 1.01 | 59 | 1012.6 | |
| 20260902202059 | 86 | 0.0 | 4.0 | 0.00 | 1.01 | 1.01 | 60 | 1012.8 | |
| 20260902201019 | 86 | 0.0 | 1.0 | 0.00 | 1.01 | 1.01 | 61 | 1012.9 | |
| 20260902200020 | 85 | 0.0 | 1.0 | 0.00 | 1.01 | 1.01 | 65 | 1013.1 | |
| 20260902195019 | 85 | 203 | 1.0 | 5.0 | 0.00 | 1.01 | 1.01 | 61 | 1013.2 |
| 20260902194019 | 85 | 0.0 | 1.0 | 0.00 | 1.01 | 1.01 | 65 | 1013.1 | |
| 20260902193019 | 84 | 0.0 | 2.0 | 0.00 | 1.01 | 1.01 | 65 | 1013.1 | |
| 20260902192019 | 83 | 180 | 1.0 | 4.0 | 0.00 | 1.01 | 1.01 | 66 | 1013.1 |
| 20260902191036 | 82 | 0.0 | 2.0 | 0.00 | 1.01 | 1.01 | 68 | 1013.0 | |
| 20260902190028 | 82 | 0.0 | 1.0 | 0.00 | 1.01 | 1.01 | 67 | 1013.0 | |
| 20260902185039 | 82 | 0.0 | 1.0 | 0.00 | 1.01 | 1.01 | 66 | 1013.0 | |
| 20260902184019 | 82 | 0.0 | 1.0 | 0.00 | 1.01 | 1.01 | 66 | 1013.0 | |
| 20260902183019 | 82 | 0.0 | 1.0 | 0.00 | 1.01 | 1.01 | 68 | 1013.0 | |
| 20260902182027 | 82 | 0.0 | 2.0 | 0.00 | 1.01 | 1.01 | 68 | 1013.1 | |
| 20260902181019 | 82 | 0.0 | 2.0 | 0.00 | 1.01 | 1.01 | 67 | 1013.0 | |
| 20260902180019 | 82 | 0.0 | 2.0 | 0.00 | 1.01 | 1.01 | 67 | 1013.0 | |
| 20260902175036 | 82 | 0.0 | 0.0 | 0.00 | 1.01 | 1.01 | 69 | 1012.9 | |
| 20260902174019 | 81 | 0.0 | 2.0 | 0.00 | 1.01 | 1.01 | 68 | 1013.2 | |
| 20260902173036 | 80 | 0.0 | 0.0 | 0.00 | 1.01 | 1.01 | 78 | 1013.4 | |
| 20260902172028 | 79 | 0.0 | 2.0 | 0.00 | 1.01 | 1.01 | 73 | 1013.5 | |
| 20260902171019 | 78 | 0.0 | 2.0 | 0.00 | 1.01 | 1.01 | 76 | 1013.6 | |
| 20260902170019 | 78 | 0.0 | 1.0 | 0.00 | 1.01 | 1.01 | 77 | 1013.4 | |
| 20260902165039 | 78 | 0.0 | 1.0 | 0.00 | 1.01 | 1.01 | 77 | 1013.6 | |
| 20260902164100 | 77 | 0.0 | 1.0 | 0.00 | 1.01 | 1.01 | 77 | 1013.8 | |
| 20260902163048 | 77 | 0.0 | 0.0 | 0.00 | 1.01 | 1.01 | 84 | 1013.7 | |
| 20260902162036 | 76 | 0.0 | 1.0 | 0.00 | 1.01 | 1.01 | 81 | 1013.5 | |
| 20260902161020 | 75 | 0.0 | 0.0 | 0.00 | 1.01 | 1.01 | 86 | 1013.5 | |
| 20260902160028 | 74 | 0.0 | 1.0 | 0.00 | 1.01 | 1.01 | 84 | 1013.0 | |
| 20260902155027 | 73 | 0.0 | 1.0 | 0.00 | 1.01 | 1.01 | 85 | 1013.3 | |
| 20260902154048 | 72 | 0.0 | 1.0 | 0.00 | 1.01 | 1.01 | 87 | 1013.5 | |
| 20260902153019 | 71 | 0.0 | 0.0 | 0.00 | 1.01 | 1.01 | 88 | 1013.7 | |
| 20260902152406 | 71 | 0.0 | 0.0 | 0.00 | 1.01 | 1.01 | 88 | 1013.8 | |
| 20260902151019 | 70 | 0.0 | 1.0 | 0.00 | 1.01 | 1.01 | 88 | 1013.8 | |
| 20260902150036 | 68 | 0.0 | 0.0 | 0.00 | 1.01 | 1.01 | 83 | 1013.8 | |
| 20260902145019 | 67 | 0.0 | 0.0 | 0.00 | 1.01 | 1.01 | 82 | 1013.7 | |
| 20260902144300 | 66 | 0.0 | 0.0 | 0.00 | 1.01 | 1.01 | 82 | 1013.5 | |
| 20260902143536 | 66 | 0.0 | 0.0 | 0.00 | 1.01 | 1.01 | 82 | 1013.5 | |
| 20260902142528 | 65 | 0.0 | 0.0 | 0.00 | 1.01 | 1.01 | 82 | 1013.3 | |
| 20260902141519 | 65 | 0.0 | 0.0 | 0.00 | 1.01 | 1.01 | 82 | 1013.1 | |
| 20260902140520 | 65 | 0.0 | 0.0 | 0.00 | 1.01 | 1.01 | 83 | 1013.2 | |
| 20260902135519 | 64 | 0.0 | 0.0 | 0.00 | 1.01 | 1.01 | 83 | 1013.5 | |
| 20260902134519 | 64 | 0.0 | 0.0 | 0.03 | 1.01 | 1.01 | 83 | 1013.1 | |
| 20260902133545 | 64 | 0.0 | 0.0 | 0.05 | 1.01 | 1.01 | 83 | 1012.9 | |
| 20260902132544 | 64 | 0.0 | 0.0 | 0.08 | 1.01 | 1.01 | 83 | 1013.0 | |
| 20260902131539 | 63 | 0.0 | 1.0 | 0.09 | 1.01 | 1.01 | 83 | 1013.5 | |
| 20260902130527 | 63 | 0.0 | 0.0 | 0.10 | 1.01 | 1.01 | 83 | 1014.0 | |
| 20260902125519 | 63 | 0.0 | 0.0 | 0.11 | 1.01 | 1.01 | 83 | 1014.4 | |
| 20260902124519 | 63 | 0.0 | 0.0 | 0.09 | 0.98 | 0.98 | 83 | 1014.3 | |
| 20260902123518 | 63 | 0.0 | 1.0 | 0.07 | 0.96 | 0.96 | 83 | 1014.4 | |
| 20260902122519 | 63 | 0.0 | 1.0 | 0.04 | 0.93 | 0.93 | 83 | 1015.8 | |
| 20260902121536 | 63 | 0.0 | 2.0 | 0.04 | 0.92 | 0.92 | 83 | 1014.8 | |
| 20260902120545 | 63 | 0.0 | 0.0 | 0.03 | 0.91 | 0.91 | 83 | 1014.6 | |
| 20260902115518 | 63 | 0.0 | 0.0 | 0.02 | 0.90 | 0.90 | 83 | 1014.3 | |
| 20260902114519 | 63 | 0.0 | 0.0 | 0.01 | 0.89 | 0.89 | 83 | 1015.2 | |
| 20260902113518 | 63 | 0.0 | 0.0 | 0.01 | 0.89 | 0.89 | 83 | 1013.5 | |
| 20260902112536 | 63 | 0.0 | 1.0 | 0.06 | 0.89 | 0.89 | 83 | 1012.7 | |
| 20260902111519 | 63 | 0.0 | 0.0 | 0.05 | 0.88 | 0.88 | 83 | 1013.6 | |
| 20260902110536 | 63 | 0.0 | 0.0 | 0.05 | 0.88 | 0.88 | 83 | 1013.7 | |
| 20260902105539 | 62 | 0.0 | 0.0 | 0.05 | 0.88 | 0.88 | 83 | 1014.1 | |
| 20260902104556 | 62 | 0.0 | 1.0 | 0.05 | 0.88 | 0.88 | 83 | 1013.0 | |
| 20260902103519 | 62 | 0.0 | 1.0 | 0.05 | 0.88 | 0.88 | 83 | 1013.1 | |
| 20260902102547 | 62 | 0.0 | 0.0 | 0.00 | 0.83 | 0.83 | 84 | 1014.0 | |
| 20260902101527 | 62 | 0.0 | 0.0 | 0.00 | 0.83 | 0.83 | 84 | 1013.7 | |
| 20260902100527 | 62 | 0.0 | 1.0 | 0.04 | 0.83 | 0.83 | 84 | 1013.9 | |
| 20260902095547 | 63 | 0.0 | 1.0 | 0.23 | 0.83 | 0.83 | 85 | 1014.2 | |
| 20260902094536 | 63 | 0.0 | 1.0 | 0.59 | 0.83 | 0.83 | 85 | 1014.7 | |
| 20260902093518 | 63 | 0.0 | 1.0 | 0.74 | 0.83 | 0.83 | 86 | 1015.2 | |
| 20260902092518 | 63 | 0.0 | 1.0 | 0.77 | 0.83 | 0.83 | 87 | 1015.1 |